Regional Weather Roundup
Issued by NWS

Home | Current Version | Previous Version | Text Only | Print | Product List | Glossary On
Versions: 1 2 3 4 5 6 7 8 9 10 11 12 13 14 15 16 17 18 19 20 21 22 23 24 25 26 27 28 29 30 31 32 33 34 35 36 37 38 39 40 41 42 43 44 45 46 47 48 49 50
000
ASUS45 KTFX 102017
RWRMT
MONTANA REGIONAL WEATHER ROUNDUP
NATIONAL WEATHER SERVICE GREAT FALLS MT
100 PM MST WED FEB 10 2016

NOTE: "FAIR" INDICATES FEW OR NO CLOUDS BELOW 12000 FEET WITH NO
SIGNIFICANT WEATHER AND/OR OBSTRUCTIONS TO VISIBILITY.

MTZ001>007-043-102100-
WEST OF THE DIVIDE

CITY           SKY/WX    TMP DP  RH WIND       PRES   REMARKS
MISSOULA         N/A     32  28  85 W3        30.28F
MULLAN PASS      N/A     42  26  53 VRB6      30.25S
ANACONDA         N/A     45  27  49 N9        30.23S
DEER LODGE       N/A     36  28  75 CALM      30.26F
HAMILTON         N/A     45  30  57 N3        30.24F
LIBBY            N/A     32  28  86 CALM      30.27F
PLAINS           N/A     33  30  89 CALM      30.24F
$$

MTZ008-052>055-102100-
SOUTHWEST MONTANA

CITY           SKY/WX    TMP DP  RH WIND       PRES   REMARKS
ENNIS          SUNNY     48  27  43 S17       30.30F
THREE FORKS      N/A     38  38 100 CALM      30.19F
TWIN BRIDGES     N/A     38  26  62 CALM      30.23
$$

MTZ009-010-012-014-046-048-049-054-102100-
EAST SLOPES AND CENTRAL MONTANA

CITY           SKY/WX    TMP DP  RH WIND       PRES   REMARKS
CHOTEAU          N/A     54  27  35 SE5       30.10F
CONRAD           N/A     54  31  41 N5        30.11S
$$

MTZ011-013-016-021-045-047-050-051-102100-
NORTH CENTRAL MONTANA

CITY           SKY/WX    TMP DP  RH WIND       PRES   REMARKS
N BAR RANCH      N/A     48  25  40 NW15G21   30.10S
CHINOOK          N/A     46  32  57 CALM      30.10F
$$

MTZ017>020-022>027-061-062-102100-
NORTHEAST MONTANA

CITY           SKY/WX    TMP DP  RH WIND       PRES   REMARKS
JORDAN           N/A     44  33  65 N8        30.06R
SIDNEY         CLOUDY    37  30  75 N15       30.06R WCI  28
PLENTYWOOD       N/A     32  27  80 NW14G22   30.06R WCI  22
POPLAR           N/A     36  30  80 N14G23    30.09R WCI  27
SCOBEY           N/A     32  24  72 NW15      30.06R WCI  22
$$

MTZ028>42-056>058-102100-
SOUTHCENTRAL AND SOUTHEAST MONTANA

CITY           SKY/WX    TMP DP  RH WIND       PRES   REMARKS
BILLINGS       PTSUNNY   63  17  17 NW21G28   30.07F
EKALAKA          N/A     51  27  39 W14       29.97R
FORSYTH          N/A     52  27  37 NW9       30.05R
LAUREL           N/A     62  23  22 W22       30.05F
ROUNDUP          N/A     59  22  24 W14       29.97F
$$

REGIONAL REPORTS...DAKOTAS

CITY           SKY/WX    TMP DP  RH WIND       PRES   REMARKS
WILLISTON      CLOUDY    31  25  78 N15       30.07R WCI  20
MINOT          CLOUDY    17   7  64 NE5       30.07R
DICKINSON      CLOUDY    37  28  70 N16       29.95R WCI  28
BEACH          PTSUNNY   41  32  70 N17       30.03S
CROSBY         CLOUDY    23  23 100 N6        30.09R WCI  16
TIOGA          CLOUDY    23  23 100 N14       30.08S WCI  11
WATFORD CITY   CLOUDY    32  27  80 NW15      30.05R WCI  22
BISMARCK       CLOUDY    25  15  66 NE8       30.02R WCI  16
GRAND FORKS    CLOUDY    10  -1  61 NE9       30.18R WCI  -3
FARGO          CLOUDY    15   2  56 NE5       30.13R
BUFFALO SD       N/A     51  29  42 NW20G28   29.90R
RAPID CITY       N/A     63  21  20 NW26G38   29.92R
$$

REGIONAL REPORTS...WYOMING/IDAHO/WASHINGTON

CITY           SKY/WX    TMP DP  RH WIND       PRES   REMARKS
GILLETTE         N/A     55  25  31 NW18G24   30.03F
SHERIDAN       PTSUNNY   59  18  20 N18       30.02S
BUFFALO WY       N/A     56  24  29 N16G23    30.06F
CODY             N/A     59  16  18 W12G17    30.11F
YELLOWSTONE LA   N/A     28  16  60 E3        30.36F
SPOKANE        PTSUNNY   38  33  82 NE3       30.25F
$$

REGIONAL REPORTS...ALBERTA

CITY           SKY/WX    TMP DP  RH WIND       PRES   REMARKS
EDMONTON       CLOUDY    32  25  74 E7        30.14R WCI  26
CALGARY        PTSUNNY   37  28  70 SE6       30.05F
LETHBRIDGE     PTSUNNY   45  28  53 S9        30.05F
MEDICINE HAT   PTSUNNY   37  32  81 NE12      30.11R WCI  30
CARDSTON         N/A     57  25  28 W9          N/A
$$

REGIONAL REPORTS...SASKATCHEWAN

CITY           SKY/WX    TMP DP  RH WIND       PRES   REMARKS
SWIFT CURRENT  CLOUDY    32  30  93 NW9       30.10R WCI  24
REGINA         CLOUDY    25  18  74 N13G18    30.10R WCI  13
SASKATOON      CLOUDY    21  16  79 NE7       30.22R WCI  13
CYPRESS HILLS    N/A     36  28  75 NW5         N/A
VAL MARIE        N/A     34  30  86 N9          N/A  WCI  26
ROCKGLEN         N/A     28  25  86 N16G22      N/A  WCI  17
$$



USA.gov is the U.S. government's official web portal to all federal, state and local government web resources and services.